Showing default

IRIDIUM 120, 42805

Orbit data source: Space-Track

IRIDIUM 120, 42805 is a payload satellite owned by Iridium (US) in LEO that was launched on Sun, 25 Jun 2017 UTC via an FALCON 9 launch vehicle from the Air Force Western Test Range (AFWTR). Payloads include a variety of satellites, spacecraft, and rockets equipped with specific instruments for various scientific and technological missions. These include communications satellites like Starlink; space stations such as the ISS; scientific satellites like the Hubble; Earth observation satellites from companies like Planet Labs, Umbra, and HawkEye 360; GPS; miniature CubeSats for education and research; and military/defense satellites.

Loading next visibility...
IRIDIUM 120 details
Identifier
42805, 2017-039C
Orbit
LEO
Last TLE update12 hours ago
Origin
Flag of USIridium (US)
ManufacturerOATK SSG Gilbert
MissionOperational Commercial Communications
Bus & MotorELITEBUS, Unknown motor
Mass860 kg wet, 700 kg dry
Launch date (UTC)
2017-06-25 (8 years ago)
Launch vehicle
FALCON 9
Launch site
Air Force Western Test Range (AFWTR)
Object type
Payload
Rocket body
Debris
Shape & HBRTrap Box + 2 Pan, 9.4 m
Radar Cross Section14.423 m², Large (>1 m²)

Expand to show TLE details & history

TLE from 12 hours ago
0 IRIDIUM 120
1 42805U 17039C   24361.24897475  .00000267  00000-0  88281-4 0  9997
2 42805  86.3982 186.8141 0001866  98.8354 261.3053 14.34218507394072
Epoch: 2024-12-26T05:58Z
Definitive object data (Epoch: 2024-12-26T05:58:31.418Z)
Latitude-0.00003°
Longitude1.9521°
Altitude780.918 km
Speed7.463 km/s
True Right ascension12h 27m 15s
True Declination0° 00' 00"
Sunlit
Object was in daylight at TLE epoch
Visualization TLE readout
Latitude-46.54992°
Longitude-2.03786°
Altitude796.828 km
Speed7.453 km/s
Apparent Right ascension08h 32m 39s
Apparent Declination-58° 38' 18"
Sunlit
Object is in daylight
Visualization observer readout
Local Sidereal Time16:51:08
Azimuth222.634° SW
Elevation-50.777°
Doppler factor1
Orbital elements
Apogee altitude775.964 km
Perigee altitude773.294 km
Semi-major axis7,152.766 km
Eccentricity0.0001866
Inclination86.3982°
RAAN186.8141°
Arg. of periapsis98.8354°
True anomaly261.28416°
Mean anomaly261.3053°
Eccentric anomaly261.29473°
Mean motion3.58783 °/min
BSTAR0.000088281
Orbital period100.34 mins
Loading maneuver chart data...
Loading historical data...
Loading historical data...
Loading historical data...
Loading historical data...
Loading historical data...
Loading historical data...
Loading historical data...

IRIDIUM 120 Visibility forecast

Observer location: undefined°, undefined

Span
Click to sort rows by Start time (UTC) header in descending order
Start Az.
Max El. time (UTC)
Max El. Az.
Max El.
End time (UTC)
End Az.
9 mins2024-12-27 00:58:48.139Z350.188° N2024-12-27 01:02:48.139Z260.515° W42.973°2024-12-27 01:07:48.139Z188.218° SSW
6 mins2024-12-27 12:15:48.139Z122.891° SE2024-12-27 12:17:48.139Z90.682° ESE24.537°2024-12-27 12:21:48.139Z31.266° NE
7 mins2024-12-27 13:55:48.139Z228.989° WSW2024-12-27 13:58:48.139Z280.212° WNW27.69°2024-12-27 14:02:48.139Z338.583° N
|